This demonstration page uses our WeatherBlox Daily Observations layout. Learn more.

41.55636, -103.73856

Hourly Observations for May 28, 2017

Temp ( °F °C ) Dew Point ( °F °C ) Humidity (%) Winds ( mph kmh ) Pressure ( in mb ) Visibility ( mi km ) Precip ( " mm )
12:53 am 00:53 Clear 47 8.3 40 4.4 77 77 Calm 30.09 1019 10 16.0934 0 0
1:53 am 01:53 Clear 45 7.2 40 4.4 83 83 NNW 5 7 30.1 1019 10 16.0934 0 0
2:53 am 02:53 Clear 43 6.1 39 3.9 86 86 NW 6 9 30.12 1020 10 16.0934 0 0
3:53 am 03:53 Clear 44 6.7 39 3.9 83 83 WNW 7 11 30.09 1019 10 16.0934 0 0
4:53 am 04:53 Clear 42 5.6 38 3.3 85 85 NW 8 13 30.1 1019 10 16.0934 0 0
5:53 am 05:53 Sunny 42 5.6 38 3.3 85 85 NNW 7 11 30.11 1020 10 16.0934 0 0
6:53 am 06:53 Sunny 47 8.3 41 5 80 80 NW 8 13 30.12 1020 10 16.0934 0 0
7:53 am 07:53 Sunny 54 12.2 41 5 62 62 WNW 9 15 30.11 1020 10 16.0934 0 0
8:53 am 08:53 Sunny 58 14.4 42 5.6 56 56 WNW 12 19 30.13 1020 10 16.0934 0 0
9:53 am 09:53 Sunny 64 17.8 43 6.1 46 46 WNW 14 22 30.12 1020 10 16.0934 0 0
10:53 am 10:53 Sunny 70 21.1 44 6.7 39 39 WNW 14 22 30.1 1019 10 16.0934 0 0
11:53 am 11:53 Mostly Cloudy 70 21.1 41 5 35 35 NNW 15 24 30.1 1019 10 16.0934 0 0
12:53 pm 12:53 Mostly Cloudy 71 21.7 41 5 34 34 NNW 16 26 30.08 1019 10 16.0934 0 0
1:53 pm 13:53 Partly Cloudy 73 22.8 40 4.4 30 30 NW 17 28 30.06 1018 10 16.0934 0 0.0254
2:53 pm 14:53 Partly Cloudy 76 24.4 40 4.4 27 27 WNW 12 19 30.04 1017 10 16.0934 0 0
3:16 pm 15:16 Partly Cloudy 73 23 43 6 33 33 NW 14 22 29.91 1013 10 16.0934 0 0
3:53 pm 15:53 Mostly Cloudy 71 21.7 39 3.9 31 31 undefined N/A 30.05 1018 10 16.0934 0 0.0254
4:11 pm 16:11 Mostly Cloudy with Light Rain 68 20 36 2.2 31 31 W 20 31 29.94 1014 6 9.65604 0 0.0254
4:53 pm 16:53 Mostly Cloudy with Light Rain 59 15 47 8.3 64 64 NNW 23 37 30.14 1021 10 16.0934 0 0.0254
5:53 pm 17:53 Cloudy 66 18.9 43 6.1 43 43 WNW 9 15 30.1 1019 10 16.0934 0 0.0254
6:53 pm 18:53 Sunny 67 19.4 43 6.1 42 42 NW 10 17 30.06 1018 10 16.0934 0 0
7:53 pm 19:53 Sunny 63 17.2 45 7.2 52 52 W 5 7 30.05 1018 10 16.0934 0 0
8:53 pm 20:53 Mostly Cloudy with Light Rain 56 13.3 46 7.8 70 70 NE 17 28 30.1 1019 10 16.0934 0 0.0254
9:00 pm 21:00 Mostly Cloudy 55 13 45 7 67 67 ENE 13 20 30.09 1019 10 16.0934 0 0
9:53 pm 21:53 Mostly Cloudy 54 12.2 46 7.8 75 75 Calm 30.12 1020 10 16.0934 0 0.0254
10:53 pm 22:53 Clear 50 10 45 7.2 83 83 SW 7 11 30.13 1020 10 16.0934 0 0
11:53 pm 23:53 Clear 51 10.6 45 7.2 80 80 Calm 30.1 1019 10 16.0934 0 0

Powered by AerisWeather